DW0307 Weather Reports


Display with metric or nautical units.
time (UTC)temp
F
wind
direction
speed
MPH
gust
MPH
rain 1hr
in
rain 24hr
in
rain mn
in
humidity
%
barometer
mb
20260831010058 50 302 0.0 4.0 0.00 0.00 0.00 86 1018.8
20260831004606 50 311 2.0 4.0 0.00 0.00 0.00 86 1018.8
20260831003104 51 298 3.0 4.0 0.00 0.00 0.00 86 1018.9
20260831001606 51 295 3.0 4.0 0.00 0.00 0.00 85 1019.0
20260831000058 52 340 0.0 3.0 0.00 0.00 0.00 85 1019.0
20260830234555 53 0 0.0 2.0 0.00 0.00 0.00 85 1018.8
20260830233055 54 352 1.0 4.0 0.00 0.00 0.00 85 1018.9
20260830231608 53 323 1.0 3.0 0.00 0.00 0.00 86 1019.0
20260830230057 53 321 2.0 5.0 0.00 0.00 0.00 86 1019.2
20260830224608 52 308 2.0 4.0 0.00 0.00 0.00 85 1019.2
20260830223054 53 319 1.0 4.0 0.00 0.00 0.00 85 1019.0
20260830221548 53 307 2.0 4.0 0.00 0.00 0.00 85 1018.9
20260830214604 54 302 1.0 4.0 0.00 0.00 0.00 85 1019.2
20260830213053 54 302 1.0 4.0 0.00 0.00 0.00 86 1018.9
20260830204559 54 0 0.0 3.0 0.00 0.00 0.00 84 1018.9
20260830203056 54 301 0.0 2.0 0.00 0.00 0.00 83 1018.8
20260830201552 55 301 1.0 3.0 0.00 0.00 0.00 83 1018.7
20260830200050 55 301 1.0 2.0 0.00 0.00 0.00 82 1018.9
20260830194601 56 301 1.0 3.0 0.00 0.00 0.00 81 1018.7
20260830193055 57 301 2.0 3.0 0.00 0.00 0.00 79 1018.6
20260830191551 58 301 2.0 3.0 0.00 0.00 0.00 78 1018.7
20260830190051 59 0 0.0 3.0 0.00 0.00 0.00 76 1018.6
20260830184559 61 301 1.0 5.0 0.00 0.00 0.00 75 1018.4
20260830183054 62 327 2.0 7.0 0.00 0.00 0.00 75 1018.4
20260830181551 61 310 3.0 5.0 0.00 0.00 0.00 76 1018.2
20260830180103 63 267 2.0 4.0 0.00 0.00 0.00 73 1018.1
20260830174556 65 0 0.0 1.0 0.00 0.00 0.00 70 1017.9
20260830173053 68 267 0.0 4.0 0.00 0.00 0.00 68 1017.8
20260830171557 71 262 3.0 4.0 0.00 0.00 0.00 64 1017.7
20260830170101 73 0 0.0 2.0 0.00 0.00 0.00 58 1017.6
20260830164601 74 261 1.0 3.0 0.00 0.00 0.00 56 1017.5
20260830163100 75 261 3.0 7.0 0.00 0.00 0.00 53 1017.4
20260830161600 76 254 6.0 10.0 0.00 0.00 0.00 49 1017.5
20260830160053 78 257 7.0 10.0 0.00 0.00 0.00 48 1017.4
20260830154601 79 257 5.0 11.0 0.00 0.00 0.00 47 1017.3
20260830153059 79 261 8.0 14.0 0.00 0.00 0.00 45 1017.4
20260830151608 80 259 8.0 13.0 0.00 0.00 0.00 45 1017.5
20260830150055 80 250 10.0 13.0 0.00 0.00 0.00 44 1017.5
20260830144552 80 252 10.0 14.0 0.00 0.00 0.00 40 1017.4
20260830143110 80 250 11.0 16.0 0.00 0.00 0.00 42 1017.7
20260830141551 80 265 11.0 16.0 0.00 0.00 0.00 42 1017.7
20260830140051 81 257 8.0 16.0 0.00 0.00 0.00 41 1017.6
20260830134555 81 265 11.0 20.0 0.00 0.00 0.00 42 1017.8
20260830133051 80 270 12.0 17.0 0.00 0.00 0.00 41 1017.8
20260830131603 80 242 10.0 17.0 0.00 0.00 0.00 40 1017.8
20260830130107 80 251 14.0 23.0 0.00 0.00 0.00 35 1017.9
20260830124555 80 241 14.0 20.0 0.00 0.00 0.00 38 1017.9
20260830123108 80 249 9.0 17.0 0.00 0.00 0.00 39 1017.9
20260830121605 79 268 8.0 18.0 0.00 0.00 0.00 40 1018.0
20260830120058 80 273 10.0 16.0 0.00 0.00 0.00 43 1018.2
20260830114610 79 241 14.0 20.0 0.00 0.00 0.00 41 1018.4
20260830113100 79 235 11.0 18.0 0.00 0.00 0.00 42 1018.5
20260830111601 78 246 13.0 18.0 0.00 0.00 0.00 40 1018.6
20260830110058 78 244 9.0 14.0 0.00 0.00 0.00 45 1018.7
20260830104555 78 244 7.0 16.0 0.00 0.00 0.00 44 1018.8
20260830103053 78 242 6.0 11.0 0.00 0.00 0.00 46 1018.9
20260830101603 78 221 7.0 12.0 0.00 0.00 0.00 46 1018.8
20260830100058 78 250 6.0 15.0 0.00 0.00 0.00 46 1018.9
20260830094552 77 257 6.0 13.0 0.00 0.00 0.00 47 1019.1
20260830093050 76 198 7.0 10.0 0.00 0.00 0.00 55 1019.2
20260830091557 74 148 3.0 14.0 0.00 0.00 0.00 56 1019.1
20260830090051 75 221 3.0 11.0 0.00 0.00 0.00 56 1019.2
20260830084609 74 231 2.0 10.0 0.00 0.00 0.00 62 1019.3
20260830083058 72 134 4.0 9.0 0.00 0.00 0.00 62 1019.4
20260830081604 71 142 5.0 10.0 0.00 0.00 0.00 63 1019.4
20260830080052 71 104 3.0 6.0 0.00 0.00 0.00 65 1019.3
20260830074604 71 0 2.0 6.0 0.00 0.00 0.00 65 1019.4
20260830073104 71 212 1.0 4.0 0.00 0.00 0.00 66 1019.3
20260830071600 71 182 0.0 3.0 0.00 0.00 0.00 68 1019.3
20260830070053 69 182 0.0 3.0 0.00 0.00 0.00 71 1019.2
20260830064551 67 198 0.0 3.0 0.00 0.00 0.00 75 1019.2
20260830063100 65 0 0.0 3.0 0.00 0.00 0.00 79 1019.2
20260830061602 63 0 0.0 2.0 0.00 0.00 0.00 86 1019.2
20260830060055 62 0 1.0 2.0 0.00 0.00 0.00 88 1019.2
20260830054557 60 0 0.0 2.0 0.00 0.00 0.00 90 1019.2
20260830053052 58 0 0.0 3.0 0.00 0.00 0.00 90 1019.2
20260830051551 56 0 0.0 2.0 0.00 0.00 0.00 91 1019.2
20260830044553 54 0 0.0 1.0 0.00 0.00 0.00 90 1019.2
20260830043049 52 0 0.0 0.0 0.00 0.00 0.00 90 1019.2
20260830041606 51 0 0.0 3.0 0.00 0.00 0.00 90 1019.1
20260830040110 50 272 0.0 2.0 0.00 0.00 0.00 89 1018.9
20260830034556 51 271 0.0 3.0 0.00 0.00 0.00 89 1019.0
20260830033052 51 0 1.0 3.0 0.00 0.00 0.00 89 1018.8
20260830031553 52 272 1.0 2.0 0.00 0.00 0.00 89 1019.1
20260830030113 52 271 1.0 3.0 0.00 0.00 0.00 89 1019.0
20260830024551 53 271 2.0 3.0 0.00 0.00 0.00 89 1018.9
20260830023104 53 272 0.0 4.0 0.00 0.00 0.00 89 1018.9
20260830021557 53 273 3.0 6.0 0.00 0.00 0.00 89 1019.1
20260830020100 54 325 2.0 4.0 0.00 0.00 0.00 89 1019.0
20260830014551 54 80 1.0 3.0 0.00 0.00 0.00 89 1018.9
20260830013050 55 0 0.0 0.0 0.00 0.00 0.00 89 1018.9
20260830011556 55 0 1.0 4.0 0.00 0.00 0.00 89 1018.8